星链-3972 (STARLINK-3972 )

导读 | 星芒AI

STARLINK-3972 是 SpaceX Starlink 卫星互联网项目中的一颗低轨卫星,属于第 14 批次部署的星链卫星之一。该卫星于 2023 年发射,运行在约 550 公里的轨道高度,旨在为全球提供高速、低延迟的宽带互联网服务。作为星链网络的重要组成部分,STARLINK-3972 与其他卫星协同工作,提升覆盖范围与网络稳定性,尤其服务于传统网络难以到达的偏远地区。

基本信息
目录编号:
52669
目录名称:
STARLINK-3972
国际标识:
2022-053P
轨道中心:
EARTH
卫星名称:
星链-3972
卫星全名:
星链-3972 (STARLINK-3972 )
卫星状态:
在轨 (已飞行1264 天)
发射日期:
2022-05-18 UTC
国别 :
美国 (US)
星等 :
--
轨道信息
数据来源 国际轨道数据 AOE轨道数据
星历时间 2025-11-01T19:20:27+0800
22小时前
查看轨道信息
2025-11-01T16:00:00+0800
1天前
查看轨道信息
半长轴 6917.911km 6917.885km
偏心率 0.0001273 0.0001896
轨道倾角 53.217° 53.218°
近地点辐角 93.437° 77.133°
升交点赤经 9.707° 10.334°
平近点角 266.677° 246.493°
近地点 538.895km 538.438km
远地点 540.657km 541.062km
周期 95.438分钟 95.438分钟
每日圈数 15.088303 15.088388
详细信息
固有亮度:
5
最大亮度:
2.5
卫星平台:
Starlink v1.5
覆盖范围:
全球
运营商:
太空探索技术公司
运营商所在国:
美国
制造商(研发单位):
太空探索技术公司
制造商所在国:
美国
使用方式:
暂无
卫星简介
星链(Starlink)计划是由太空探索技术公司(SpaceX)提出的一个巨型低轨卫星互联网星座项目,计划在2019年至2024年间在太空搭建由约1.2万颗卫星组成的“星链”网络,其中1584颗将部署在地球上空550千米处的近地轨道,并从2020年开始工作。该卫星仍在工作。
2D轨道图
3D轨道图
轨道高度分析图
轨道倾角分析图
轨道综合分析图
查看轨道综合分析图